Location: Barrio Las Umbrías
(40.4173°N, 4.8685°W)
Time: 13:36:57
(UTC+00:00)

Helios 1A Rocket - Pass Details

Date: 17 August 2022
Orbit: 556 x 581 km, 98.2° (Epoch: 27 September)

Event Time Altitude Azimuth Distance (km) Brightness Sun altitude
Exits shadow 22:20:49 36° 328° (NNW) 916 4.4 -29.3°
Drops below altitude 10° 22:23:22 10° 341° (NNW) 1,883 6.4 -29.6°
Sets 22:25:31 0° 344° (NNW) 2,781 7.5 -29.8°
